Regional Weather Roundup
Issued by NWS Wakefield, VA

Home | Current Version | Previous Version | Graphics & Text | Print | Product List | Glossary On
Versions: 1 2 3 4 5 6 7 8 9 10 11 12 13 14 15 16 17 18 19 20 21 22 23 24 25 26 27 28 29 30 31 32 33 34 35 36 37 38 39 40 41 42 43 44 45 46 47 48 49 50
868
ASUS41 KAKQ 232115
RWRAKQ

REGIONAL WEATHER ROUNDUP
NATIONAL WEATHER SERVICE WAKEFIELD VA
500 PM EDT MON MAY 23 2016

Note: "fair" indicates few or no clouds below 12,000 feet with no
significant weather and/or obstructions to visibility. * = Denotes
station may not report precipitation (e.g., rain,snow,etc.),
thunder or fog.

VAZ042-051-052>054-056-232200-
NORTHERN VIRGINIA

CITY           SKY/WX    TMP DP  RH WIND       PRES   REMARKS
WASH NATIONAL  LGT RAIN  69  54  58 N15       29.91S
DULLES         PTSUNNY   64  57  78 S7        29.90F THUNDER
FORT BELVOIR   FAIR      64  59  81 W3        29.91F
QUANTICO       FAIR      63  56  78 VRB3      29.93R THUNDER
FREDERICKSBRG* FAIR      70  55  60 NW3       29.91F
STAFFORD*      LGT RAIN  65  56  72 NW6       29.96S
WARRENTON      CLOUDY    68  53  60 SE3       29.92R THUNDER
CULPEPER*      FAIR      72  57  59 S5        29.92F
MANASSAS*      CLOUDY    63  61  94 S9G21     29.93R
LEESBURG*      FAIR      77  55  47 NW12G24   29.91S
WINCHESTER     PTSUNNY   75  52  43 NE3       29.92F
FRONT ROYAL*   MOCLDY    73  52  46 N7        29.91F
LURAY*         FAIR      73  54  49 CALM      29.93F
$$

VAZ048-049-060>072-079>083-232200-
CENTRAL AND SOUTH CENTRAL VIRGINIA

CITY           SKY/WX    TMP DP  RH WIND       PRES   REMARKS
RICHMOND       PTSUNNY   68  51  54 NW8       29.92F
CHESTERFIELD*  MOCLDY    70  48  46 NW7       29.94F
PETERSBURG*    PTSUNNY   68  55  63 W5        29.94S
HANOVER        FAIR      69  49  48 NW7       29.94S
TAPPAHANNOCK*  FAIR      69  53  57 CALM      29.92F
QUINTON*       CLOUDY    68  53  58 N3        29.91F
CHARLOTTSVILLE FAIR      68  51  54 SE8       29.95F
GORDONSVILLE*  FAIR      64  57  78 SW6       29.93F
ORANGE*        FAIR      64  55  72 CALM      29.95F
LOUISA*        FAIR      68  57  68 N3        29.93F
BUMPASS*       FAIR      67  59  76 W5        29.93F
FARMVILLE*     CLOUDY    67  52  57 CALM      29.96F
CREWE*         FAIR      67  54  62 CALM      29.96F
FORT PICKETT*  NOT AVBL
CHASE CITY*    CLOUDY    62  52  69 CALM      29.99R
CLARKSVILLE*   CLOUDY    66  46  48 NE3       29.97S
SOUTH HILL*    PTSUNNY   67  51  56 N7        30.02S
LAWRENCEVILLE* CLOUDY    65  50  57 N5        29.95F
EMPORIA*       CLOUDY    63  50  63 NW5       29.96F
$$

VAZ088>098-232200-
SOUTHEAST VIRGINIA

CITY           SKY/WX    TMP DP  RH WIND       PRES   REMARKS
NORFOLK        CLOUDY    64  56  75 N8        29.91S
VIRGINIA BEACH PTSUNNY   65  52  62 NE10      29.90S
NORFOLK NAVAL  CLOUDY    66  54  65 N13       29.92S
WEST POINT*    PTSUNNY   66  52  60 N3        29.93F
SALUDA*        CLOUDY    64  55  73 CALM      29.91F
NEWPORT NEWS   FAIR      65  56  72 NW10      29.91F
LANGLEY AFB    FAIR      66  56  70 N5        29.91S
FORT EUSTIS    FAIR      65  55  69 N6        29.90S
WILLIAMSBURG*  FAIR      66  57  72 CALM      29.93S
HR EXEC AP*    MOCLDY    70  55  60 N7        29.93R
FRANKLIN*      CLOUDY    65  51  60 N8        29.93S
US460-WAKEFLD  FAIR      67  54  63 VRB5      29.92F
$$

VAZ020-022-025-037-045-232200-
WEST CENTRAL AND SOUTHWEST VIRGINIA

CITY           SKY/WX    TMP DP  RH WIND       PRES   REMARKS
STAUNTON*      PTSUNNY   68  56  67 CALM      29.98S
WAYNESBORO*    FAIR      66  53  63 CALM      29.97F
HOT SPRINGS VA FAIR      59  49  68 N3        30.02F
LYNCHBURG      LGT RAIN  66  53  63 CALM      29.99S
DANVILLE       FAIR      69  51  52 E6        29.98S
SOUTH BOSTON*  CLOUDY    68  48  48 E8G16     29.98R
MARTINSVILLE   PTSUNNY   66  50  57 N3        30.02S
ROANOKE        FAIR      71  47  42 CALM      30.00F
BLACKSBURG     LGT RAIN  60  54  78 NW5       30.06R
DUBLIN*        CLOUDY    66  48  53 NW3       30.03F
MARION*        CLOUDY    63  48  58 NW5       30.07S
HILLSVILLE*    CLOUDY    60  48  64 NW5       30.03F
RICHLANDS*     CLOUDY    61  29  30 CALM      30.06S
WISE*          FAIR      68  39  34 NE8       30.07S
ABINGDON*      CLOUDY    67  47  49 NE3       30.04S
$$

MDZ021>025-VAZ099-100-232200-
SOUTHERN MARYLAND AND THE DELMARVA PENINSULA

CITY           SKY/WX    TMP DP  RH WIND       PRES   REMARKS
PATUXENT RIVER CLOUDY    69  54  58 CALM      29.89F
BAY BRIDGE APT LGT RAIN  66  59  77 W3        29.89R
LEONARDTOWN    CLOUDY    66  57  72 SW5       29.91S
DOVER          CLOUDY    66  58  75 E12       29.84F
GEORGETOWN     MOSUNNY   66  51  58 E9        29.90F
EASTON         TSTM      63  57  82 CALM      29.93R
CAMBRIDGE        N/A     64  55  72 N5        29.89S
SALISBURY      MOSUNNY   68  50  52 NE12      29.89F
OCEAN CITY     CLOUDY    61  49  64 NE13      29.90F
WALLOPS ISLAND FAIR      64  53  67 NE13      29.90S
ACCOMACK*      FAIR      66  50  55 CALM      29.90S
$$

NCZ012>017-030>032-232200-
NORTH CENTRAL AND EASTERN NORTH CAROLINA

CITY           SKY/WX    TMP DP  RH WIND       PRES   REMARKS
ROANOKE RAPIDS FAIR      64  48  55 NE12G17   29.95S
RALEIGH        PTSUNNY   67  51  56 N6        29.98F
ELIZABETH CITY CLOUDY    64  51  62 N17       29.90S
AHOSKIE*       CLOUDY    59  56  89 CALM      29.94F
EDENTON*       CLOUDY    65  65 100 N8        29.92S
CURRITUCK*     CLOUDY    63  53  68 N12       29.91S
KILL DEVIL HLS SUNNY     62  52  69 N6G18     29.89R
MANTEO         PTSUNNY   62  55  77 N14G20    29.90S
CAPE HATTERAS  LGT RAIN  60  58  92 N8        29.89R
TARBORO*       DRIZZLE   59  55  84 N5        29.97R
GOLDSBORO      CLOUDY    65  59  80 N8        29.93S
WASHINGTON     MOSUNNY   64  55  72 NE10      29.92S
GREENVILLE     CLOUDY    63  55  77 N7        29.95S
NEW BERN       CLOUDY    64  56  75 N7        29.93S
WILMINGTON     CLOUDY    68  54  60 N10       29.94R
$$

VAZ048-232200-
ELSEWHERE

CITY           SKY/WX    TMP DP  RH WIND       PRES   REMARKS
HARRISBURG PA  CLOUDY    63  56  78 N7G21     29.91F
BALTIMORE      CLOUDY    65  59  81 W3        29.88F
ANNAPOLIS      CLOUDY    68  60  75 SE3       29.88F
ANDREWS AFB    FAIR      70  52  52 NW10      29.89S
PHILADELPHIA   PTSUNNY   75  53  46 E9        29.86F
HENDERSON NC   SUNNY     66  46  47 NE9G16    29.98S
GREENSBORO     MOSUNNY   70  48  45 NE13G20   29.99S
ROCKY MOUNT    PTSUNNY   65  56  72 VRB5      29.95S
$$

VAZ100-232200-
MARINE

STATION/POSITION TIME  TEMP    WIND        PRES    WAVE   SWELL
                       AIR SEA DIR/SP/G            HT/PER HT/PER
                 (UTC) (F)     (DEG/KT/KT) (MB)    (FT/S) (FT/S)
BRANDYWINE LGT   2000   61     190/  6/  7 1012.7F
CAPE MAY NJ      2000   62 63  110/ 10/ 13 1012.5R
LEWES DE         2000   60 60  110/  9/ 12 1012.8R
15NM E FENWICK I 2050   57 55              1012.1F   5/ 9
WACHAPREAGUE VA  2000   66 66   10/  8/ 11 1012.0R
THOMAS POINT MD  2100   63 60  190/  9/ 10 1013.2F
GOOSES REEF MD   2100   64 63  130/  6/  8 1013.5R   0
COVE POINT MD    2000   65     130/  2/  3 1013.0F
SOLOMONS ISLAND  2000   67 63  190/  3/  4   N/A
BISHOPS HEAD MD  2000   65 63  290/  6/  7 1012.5F
PINEY POINT MD   2000          290/  5/  6   N/A
POTOMAC MD       2100   63 62  270/  6/  6 1011.6F
CAMBRIDGE MD     2000   67 62  310/  3/  5 1011.4F
LEWISETTA VA     2000   65 62  320/  6/  7 1012.4F
RAPPAHANNOCK LGT 2000          340/ 16/ 18 1013.1S
STINGRAY PT      2100   64 63  320/ 10/ 12 1013.0F   1/ 2
YORK RVR RNG VA  2000   63     350/  9/ 11 1012.1F
YORKTOWN VA      2000   63 65  300/ 13/ 15 1012.5F
JAMESTOWN VA     2100   65 67  340/  6/ 12   N/A
DOMINION TERM VA 2000   65     360/ 10/ 13 1012.7F
KIPTOPEKE VA     2000      63   20/ 11/ 14   N/A
CHES BAY BRIDGE  2000   59 64   10/  8/  9 1012.8
CAPE HENRY VA    2000   60      30/ 13/ 15   N/A
CHESAPEAKE LGHT  2000   58      20/ 16/ 18 1012.8S
WILLOUBY STN VA  2000   64     350/ 17/ 19 1013.5F
CAPE HENRY BUOY  2012      59                N/A     5/ 9
1ST LANDING BUOY 2100   61 63   40/ 10/ 14 1012.7F   3/ 4
CAPE CHARLES BUO 2026      60                N/A     5/ 9   3/ 9
OFFSHORE WE BUOY 2021      58                N/A     6/ 8   5/ 8
64NM E OF VA BCH 2050   56 57  360/ 19/ 21 1010.6F   7/ 9   7/ 9
DUCK PIER NC     2000   58 62   10/ 17/ 20 1011.2F
44100 DUCK FRF   2024      58                N/A     6/ 8   2/11
44056 DUCK FRF   2011      62                N/A     5/ 8   2/11
OREGON INLET NC  2000   60 64  340/ 13/ 19 1011.9R
HATTERAS NC      2000   62 67  310/ 15/ 18 1011.2F
DIAMOND SHLS NC  2050   62 67  310/ 16/ 19 1011.7R   3/11   2/11
CAPE LOOKOUT NC  2100   66     310/ 12/ 15 1012.2R
$$




USA.gov is the U.S. government's official web portal to all federal, state and local government web resources and services.